CLASSIFICA

LA CLASSICA D'INVERNO 2016

DIVISIONI:
13K     CLASSIFICA:   ASSOLUTA   
CATEGORIE:   TUTTE    |   DONNE   |   SM   |   SM35   |   SM40   |   SM45   |   SM50   |   SM55   |   SM60   |   SM65   |   SM70   |   SMOVER  
FILTRO:
  Atleta      Team        Pulisci       Atleti classificati 13K: 115  

Cliccare sulle colonne per cambiare ordinamento Pagina:   | 1 | | 2 | | 3 |
Azioni Pos. M/F Cat. P.Cat. Pett Naz Atleta Squadra Tempo TEMPO MEDIA
11SM1403TOMARO GABRIELPODISTICA AVIS CAMPOBASSO00.48.16 00.48.16 3,35 Min/Km
22SM2401IAPOZZUTO PASQUALEGRUPPO SPORTIVO VIRTUS00.48.19 00.48.19 3,35 Min/Km
33SM3375MIGNOGNA PIERO BIAGIORUNNERS TERMOLI00.49.38 00.49.38 3,41 Min/Km
44SM451366IAMONACO GIUSEPPEPODISTICA AVIS CAMPOBASSO00.49.56 00.49.56 3,42 Min/Km
55SM4402GORRASI MICHELEA.S.D. ASTRO 2000 BN-AGROPOLI00.50.27 00.50.27 3,44 Min/Km
66SM452365GIGLIO GIOVANNIPODISTICA AVIS CAMPOBASSO00.51.54 00.51.54 3,51 Min/Km
77SM453615SFERRUZZI SERGIOASD AMATORI PODISMO BENEVENTO00.52.34 00.52.34 3,54 Min/Km
88SM351381MARINELLI GIUSEPPESPORTING CLUB PETRELLA00.53.50 00.53.50 3,59 Min/Km
99SM352351DI IORIO MAUROPOLISPORTIVA MOLISE CAMPOBASSO00.53.57 00.53.57 3,59 Min/Km
1010SM35389SCARAZZATISCARAZZATI GIANCARLOPOD. VALLE CAUDINA00.53.59 00.53.59 3,59 Min/Km
1111SM354378NAWRATIL ANDREASSPORTING CLUB PETRELLA00.54.01 00.54.01 4,00 Min/Km
1212SM401369MIGNOGNA SILVANOPODISTICA AVIS CAMPOBASSO00.54.44 00.54.44 4,03 Min/Km
1313SM454352LELLA LEONARDOPOLISPORTIVA MOLISE CAMPOBASSO00.55.15 00.55.15 4,06 Min/Km
1414SM455612BARBIERI CESAREASD AMATORI PODISMO BENEVENTO00.56.29 00.56.29 4,11 Min/Km
1515SM456658CAPUTELLI VINCENZOATLETICA DISFIDA DI BARLETTA00.56.55 00.56.55 4,13 Min/Km
1616SM355391CERULO ETTOREA.S.D. PODISTI ALTO SANNIO00.57.16 00.57.16 4,15 Min/Km
1717SM551539CUSANO GIUSEPPEASD AMATORI PODISMO BENEVENTO00.57.16 00.57.16 4,15 Min/Km
1818SM501371CIOCCIA ANGELOATLETICA PODISTICA CASTELLINO00.57.49 00.57.49 4,17 Min/Km
1919SM402392SPELTRA AMELIOA.S.D. PODISTI ALTO SANNIO00.57.51 00.57.51 4,17 Min/Km
2020SM356405MOTTILLO GIUSEPPESC PROMOSPORT BOJANO00.57.51 00.57.51 4,17 Min/Km
2121SM502376CIOCCIA PASQUALEATLETICA MOLISE AMATORI00.58.28 00.58.28 4,20 Min/Km
2222SM357372LOMBARDI DOMENICOATLETICA PODISTICA CASTELLINO00.59.03 00.59.03 4,22 Min/Km
2323SM457379TARANTINO GIANLUIGIA.S.D. PODISMO BENEVENTO00.59.15 00.59.15 4,23 Min/Km
2424SM358410PERRELLA AMEDEOSC PROMOSPORT BOJANO00.59.21 00.59.21 4,24 Min/Km
2525SM359387FUSCO DOMENICOA.S.D. PODISTI ALTO SANNIO00.59.25 00.59.25 4,24 Min/Km
2626SM403616COVIELLO GIANLUIGIASD AMATORI PODISMO BENEVENTO00.59.39 00.59.39 4,25 Min/Km
2727SM40487TAMBURRELLI PIERLUIGIRICCIA ROAD RUNNERS00.59.54 00.59.54 4,26 Min/Km
2828SM543GALASSO MICHELEQUELLI CHE CORRONO PER MANGIARE01.00.12 01.00.12 4,28 Min/Km
2929SM50356BOTTICELLA MAURIZIOA.S.D. PODISMO BENEVENTO01.00.20 01.00.20 4,28 Min/Km
3030SM552380LIBERTONE MICHELEA. S. D. MOVIMENTI01.00.26 01.00.26 4,29 Min/Km
3131SM40564TEDESCO MAINOQUELLI CHE CORRONO PER MANGIARE01.00.30 01.00.30 4,29 Min/Km
3232SM406394LOTARTOMASO TONYPODISTICA AVIS CAMPOBASSO01.00.31 01.00.31 4,29 Min/Km
3333SM60178GRECO NICOLA-01.00.36 01.00.36 4,29 Min/Km
3434SM553609ROMANO MARCELLOA.S.D. PODISMO BENEVENTO01.00.47 01.00.47 4,30 Min/Km
3535SM602404MARRO SILVIOSC PROMOSPORT BOJANO01.01.25 01.01.25 4,33 Min/Km
3636SM351060PIACQUADIO RENATOQUELLI CHE CORRONO PER MANGIARE01.01.31 01.01.31 4,33 Min/Km
3737SM554370NOVELLI CLAUDIOPODISTICA AVIS CAMPOBASSO01.01.36 01.01.36 4,34 Min/Km
3838SM675GRECO MICHELE-01.01.39 01.01.39 4,34 Min/Km
3939SM504360DI DOMENICO GIUSEPPEPODISTICA AVIS CAMPOBASSO01.01.48 01.01.48 4,35 Min/Km
4040SM505639MAFFEI ALBERTOA.S.D. PODISMO BENEVENTO01.01.54 01.01.54 4,35 Min/Km
4141SM651666SARACINO NICOLAA.POD. VALTENNA01.02.18 01.02.18 4,37 Min/Km
4242SM407412MASTROCINQUE FILIPPOA.S.D. PODISMO BENEVENTO01.02.23 01.02.23 4,37 Min/Km
4343SM458665DE MARCO DONATOI PODISTI DI CAPITANATA01.02.36 01.02.36 4,38 Min/Km
4444SM603355CANU GIANFRANCOPODISTICA AVIS CAMPOBASSO01.02.38 01.02.38 4,38 Min/Km
4545SM783DEL GROSSO ANGELOA.S.D. RED LIONS01.02.53 01.02.53 4,39 Min/Km
4646SM701621TARANTINO GERARDOASD AMATORI PODISMO BENEVENTO01.02.59 01.02.59 4,40 Min/Km
4747SM45986MADDALENA ANTONIOA.S.D. RED LIONS01.03.02 01.03.02 4,40 Min/Km
4848SM555382BARONE PAOLOATLETICA MOLISE AMATORI01.03.19 01.03.19 4,41 Min/Km
4949SM3511390PALAZZO MARIOA.S.D. PODISTI ALTO SANNIO01.03.32 01.03.32 4,42 Min/Km
5050SM8400FIORE SANDROLIBERO01.03.50 01.03.50 4,44 Min/Km
5151SM556397RICCI MICHELELIBERO01.03.57 01.03.57 4,44 Min/Km
5252SM557406BARRASSI GAETANOSC PROMOSPORT BOJANO01.04.23 01.04.23 4,46 Min/Km
5353SM408349SPULZO LINOA.S.D. PODISMO BENEVENTO01.04.59 01.04.59 4,49 Min/Km
5454SM4510359DANESE GIUSEPPEPODISTICA AVIS CAMPOBASSO01.05.35 01.05.35 4,52 Min/Km
5555SM652373LOMBARDI GIUSEPPEATLETICA PODISTICA CASTELLINO01.05.40 01.05.40 4,52 Min/Km
5656SM506354BAGNOLI LUCIANO GIUSEPPEPODISTICA AVIS CAMPOBASSO01.05.44 01.05.44 4,52 Min/Km
5757SM653374CIPOLLA AGOSTINORUNNERS TERMOLI01.05.52 01.05.52 4,53 Min/Km
581DONNE1357CASERIO LINDAPODISTICA AVIS CAMPOBASSO01.05.54 01.05.54 4,53 Min/Km
5958SM558409DI SISTO GIOVANNISC PROMOSPORT BOJANO01.06.19 01.06.19 4,55 Min/Km
6059SM507368LECCESE EMILIOPODISTICA AVIS CAMPOBASSO01.07.01 01.07.01 4,58 Min/Km
6160SM4511350TORNUSCIOLO MARCELLOA.S.D. PODISMO BENEVENTO01.07.06 01.07.06 4,58 Min/Km
6261SM40944GIACCIO ANGELOQUELLI CHE CORRONO PER MANGIARE01.07.17 01.07.17 4,59 Min/Km
6362SM604659COSTANZO ACHILLEA.S.D. PODISTI ALTO SANNIO01.07.57 01.07.57 5,02 Min/Km
6463SM654669MARINELLI ANTONIOSPORTING CLUB PETRELLA01.08.09 01.08.09 5,03 Min/Km
6564SM4010395DI CRISCIO MARCELLOPODISTICA AVIS CAMPOBASSO01.08.17 01.08.17 5,04 Min/Km
6665SM559630DE BELLIS MARIOASD AMATORI PODISMO BENEVENTO01.08.24 01.08.24 5,04 Min/Km
6766SM508614D'ORO PASQUALEASD AMATORI PODISMO BENEVENTO01.08.33 01.08.33 5,05 Min/Km
6867SM4011348LUCIANI GIAMMARIOA.S.D. PODISMO BENEVENTO01.08.52 01.08.52 5,06 Min/Km
6968SM4012408CARILE CARMINESC PROMOSPORT BOJANO01.09.26 01.09.26 5,09 Min/Km
702DONNE2407PELLEGRINO DANIELASC PROMOSPORT BOJANO01.09.30 01.09.30 5,09 Min/Km
7169SM968CARUSO ANTONIO-01.10.09 01.10.09 5,12 Min/Km
7270SM655353ACETO GIUSEPPEPODISTICA AVIS CAMPOBASSO01.10.30 01.10.30 5,13 Min/Km
7371SM4013362FANELLI SALVATOREPODISTICA AVIS CAMPOBASSO01.10.39 01.10.39 5,14 Min/Km
743DONNE3626INGLESE MICAELAASD AMATORI PODISMO BENEVENTO01.10.41 01.10.41 5,14 Min/Km
7572SM509656INTORCIA FABRIZIOA.S.D. PODISMO BENEVENTO01.10.43 01.10.43 5,14 Min/Km
7673SM605662TOZZI GIUSEPPEA.S.D. PODISTI ALTO SANNIO01.10.49 01.10.49 5,15 Min/Km
7774SM1063RUSSI MAURIZIOQUELLI CHE CORRONO PER MANGIARE01.10.52 01.10.52 5,15 Min/Km
7875SM11388INGLESE EMIDIOA.S.D. PODISTI ALTO SANNIO01.11.59 01.11.59 5,20 Min/Km
794DONNE4411MASCIA ELVIRALIBERO01.12.42 01.12.42 5,23 Min/Km
8076SM5510393OCONE RAFFAELEA.S.D. PODISTI ALTO SANNIO01.12.52 01.12.52 5,24 Min/Km
8177SM3512363GALUPPO MAURIZIOPODISTICA AVIS CAMPOBASSO01.13.05 01.13.05 5,25 Min/Km
8278SM606385IADEMARCO NICOLAGRUPPO SPORTIVO VIRTUS01.14.24 01.14.24 5,31 Min/Km
835DONNE5386DE BLASIO CINZIAA.S.D. PODISTI ALTO SANNIO01.14.33 01.14.33 5,31 Min/Km
8479SM351342DEL GROSSO MARIOGIORGIOQUELLI CHE CORRONO PER MANGIARE01.15.02 01.15.02 5,34 Min/Km
8580SM5511358D'ALOISE FRANCESCOPODISTICA AVIS CAMPOBASSO01.15.29 01.15.29 5,36 Min/Km
8681SM1257PETRIELLA GIORGIOQUELLI CHE CORRONO PER MANGIARE01.15.37 01.15.37 5,36 Min/Km
8782SM1358PETRIELLA GIOVANNIQUELLI CHE CORRONO PER MANGIARE01.15.37 01.15.37 5,36 Min/Km
8883SM656661TOZZI LUIGIA.S.D. PODISTI ALTO SANNIO01.15.56 01.15.56 5,38 Min/Km
896DONNE6356CAPPABIANCA ANNAMARIAPODISTICA AVIS CAMPOBASSO01.15.58 01.15.58 5,38 Min/Km
907DONNE7364GARGANO CATERINAPODISTICA AVIS CAMPOBASSO01.15.58 01.15.58 5,38 Min/Km
9184SM657367LAUDATI SEVERINOPODISTICA AVIS CAMPOBASSO01.17.59 01.17.59 5,47 Min/Km
9285SM5512413PACCHIANO GIANFRANCOA.S.D. PODISMO BENEVENTO01.18.18 01.18.18 5,48 Min/Km
938DONNE8346ESPOSITO LOREDANAA.S.D. PODISMO BENEVENTO01.19.19 01.19.19 5,53 Min/Km
9486SM607655DE LUCA GIOVANNIA.S.D. PODISMO BENEVENTO01.19.20 01.19.20 5,53 Min/Km
9587SM608664CHIAROLANZA GIORGIOGS ATL. STRACAGNANO01.20.04 01.20.04 5,56 Min/Km
9688SM609634COSMETICO LUIGIASD AMATORI PODISMO BENEVENTO01.20.24 01.20.24 5,57 Min/Km
9789SM14415PILLA VINCENZOLIBERO01.21.21 01.21.21 6,02 Min/Km
9890SM4512361DI STEFANO ALBERTOPODISTICA AVIS CAMPOBASSO01.23.29 01.23.29 6,11 Min/Km
9991SM451355NIGRO PIERLUIGIQUELLI CHE CORRONO PER MANGIARE01.24.14 01.24.14 6,14 Min/Km
10092SMOVER1618BARBATI UMBERTOGS ATL. STRACAGNANO01.26.32 01.26.32 6,25 Min/Km
10193SM4014399FINELLI MICHELELIBERO01.28.25 01.28.25 6,33 Min/Km
10294SM451437DEL GROSSO VINCENZOQUELLI CHE CORRONO PER MANGIARE01.28.53 01.28.53 6,35 Min/Km
10395SM6010389MARTINO GIUSEPPEA.S.D. PODISTI ALTO SANNIO01.31.50 01.31.50 6,48 Min/Km
10496SM401540DEL GROSSO MICHELEQUELLI CHE CORRONO PER MANGIARE01.32.05 01.32.05 6,49 Min/Km
10597SM451553MASCIA RAFFAELEQUELLI CHE CORRONO PER MANGIARE01.37.22 01.37.22 7,13 Min/Km
10698SMOVER2396PISCOPO ANTONIOQUELLI CHE CORRONO PER MANGIARE01.37.49 01.37.49 7,15 Min/Km
10799SM501059PEZZUTO MICHELEQUELLI CHE CORRONO PER MANGIARE01.38.47 01.38.47 7,19 Min/Km
108100SM451650IAPOZZUTO MICHELEQUELLI CHE CORRONO PER MANGIARE01.39.35 01.39.35 7,23 Min/Km
109101SM5011416BARONE PIETROLIBERO01.40.12 01.40.12 7,25 Min/Km
110102SM4517414MASELLI ROCCOLIBERO01.40.13 01.40.13 7,25 Min/Km
111103SM1529IAPOZZUTO MATTIAQUELLI CHE CORRONO PER MANGIARE01.42.24 01.42.24 7,35 Min/Km
1129DONNE9398DI STEFANO MARIALIBERO01.42.29 01.42.29 7,36 Min/Km
11310DONNE10384SPRECACENERE ADALGISAATLETICA MOLISE AMATORI01.43.04 01.43.04 7,38 Min/Km
114104SM501254MOFFA LUIGIQUELLI CHE CORRONO PER MANGIARE01.55.26 01.55.26 8,33 Min/Km
115105SM351430COLARUSSO GIOVANNIQUELLI CHE CORRONO PER MANGIARE01.55.26 01.55.26 8,33 Min/Km
Righe per pagina::     TUTTE    |   30   |   50   |   100   Pagina:   | 1 | | 2 | | 3 |